Waarnemingen

Advertentie
Mijn weer
Charleville, Frankrijk (7075): temperatuur & dauwpunt: 23.03.2017 21:00:00 - 29.03.2017 21:00:00 (CEST)Charleville, Frankrijk (7075): temperatuur 5cm: 23.03.2017 21:00:00 - 29.03.2017 21:00:00 (CEST)Charleville, Frankrijk (7075): temperatuur -20cm & temperatuur -100cm: 23.03.2017 21:00:00 - 29.03.2017 21:00:00 (CEST)Charleville, Frankrijk (7075): windsnelheid & windstoten: 23.03.2017 21:00:00 - 29.03.2017 21:00:00 (CEST)Charleville, Frankrijk (7075): windrichting: 23.03.2017 21:00:00 - 29.03.2017 21:00:00 (CEST)Charleville, Frankrijk (7075): luchtdruk: 23.03.2017 21:00:00 - 29.03.2017 21:00:00 (CEST)Charleville, Frankrijk (7075): zicht: 23.03.2017 21:00:00 - 29.03.2017 21:00:00 (CEST)Charleville, Frankrijk (7075): Zonneschijnduur: 23.03.2017 21:00:00 - 29.03.2017 21:00:00 (CEST)Charleville, Frankrijk (7075): neerslag: 23.03.2017 21:00:00 - 29.03.2017 21:00:00 (CEST)
Datum & Tijd tt [°C] td [°C] tt 5cm [°C] tt -20cm [°C] tt -100cm [°C] ff [km/u] ff [kn] fx [km/u] fx [kn] dd ppp [hPa] vv [km] sd [min] rr [mm]
29.03.2017 21:00:00 - - - - - - - - - - - - - -
29.03.2017 20:00:00 14,2 8,8 13,0 9,6 8,5 4 2 10 5 Z 1026,3 20 0 0,0
29.03.2017 19:00:00 15,3 8,3 15,8 9,5 8,5 5 3 16 9 ZZW 1026,1 20 0 0,0
29.03.2017 18:00:00 15,7 8,0 16,9 9,3 8,5 6 3 21 11 ZW 1025,9 20 28 0,0
29.03.2017 17:00:00 16,5 8,7 18,7 9,3 8,5 8 4 19 10 ZW 1026,1 20 32 0,0
29.03.2017 16:00:00 14,7 10,1 16,0 9,2 8,5 7 4 15 8 ZO 1026,9 20 10 0,0
29.03.2017 15:00:00 13,3 9,5 13,4 9,1 8,5 10 5 16 9 Z 1027,7 20 0 0,0
29.03.2017 14:00:00 12,2 9,0 13,4 9,1 8,5 6 4 18 10 ZW 1028,5 10 0 0,0
29.03.2017 13:00:00 11,5 7,8 12,7 9,0 8,5 15 8 31 17 WZW 1028,7 19 0 0,0
29.03.2017 12:00:00 11,7 8,2 12,9 9,0 8,5 3 2 7 4 NW 1028,7 15 0 0,0
29.03.2017 11:00:00 10,5 8,4 10,9 9,1 8,5 3 1 9 5 O 1028,5 14 32 0,0
29.03.2017 10:00:00 6,5 6,4 6,1 9,1 8,5 2 1 5 3 OZO 1028,3 8 15 0,0
29.03.2017 09:00:00 3,4 3,4 1,1 9,2 8,5 1 1 5 3 ZZO 1028,3 1,4 12 0,0
29.03.2017 08:00:00 1,4 1,3 -0,3 9,4 8,5 3 2 5 3 W 1028,0 0,3 0 0,0
29.03.2017 07:00:00 1,0 0,7 -0,3 9,4 8,5 3 1 5 3 WNW 1027,5 0,2 0 0,0
29.03.2017 06:00:00 1,5 1,4 -1,6 9,5 8,5 1 1 5 3 NNW 1027,0 0,2 0 0,0
29.03.2017 05:00:00 1,7 1,4 -1,6 9,6 8,5 1 1 7 4 W 1026,9 0,3 0 0,0
29.03.2017 04:00:00 2,3 1,9 -1,3 9,7 8,5 3 2 6 3 NW 1027,0 1,2 0 0,0
29.03.2017 03:00:00 3,6 3,2 -0,8 9,8 8,5 2 1 4 2 WNW 1026,8 0,9 0 0,0
29.03.2017 02:00:00 4,3 3,9 0,4 9,8 8,5 1 1 4 2 Z 1026,6 1,7 0 0,0
29.03.2017 01:00:00 4,6 4,0 1,1 9,9 8,5 1 1 4 2 O 1026,6 4,0 0 0,0
29.03.2017 00:00:00 5,8 5,1 1,8 9,9 8,5 3 1 9 5 O 1026,0 18 0 0,0
28.03.2017 23:00:00 6,8 5,7 2,0 9,9 8,5 3 1 5 3 O 1025,8 18 0 0,0
28.03.2017 22:00:00 8,1 6,1 4,0 9,8 8,5 4 2 9 5 ZO 1025,3 20 0 0,0
28.03.2017 21:00:00 10,1 7,2 6,7 9,7 8,5 6 3 25 14 ZZO 1024,8 20 0 0,0
28.03.2017 20:00:00 14,1 8,1 11,6 9,6 8,5 10 6 48 26 WZW 1023,6 20 1 0,2
28.03.2017 19:00:00 17,2 6,1 16,5 9,5 8,4 14 7 32 18 WZW 1022,9 20 30 0,0
28.03.2017 18:00:00 18,9 6,0 18,7 9,2 8,4 14 7 31 17 ZW 1022,2 20 42 0,0
28.03.2017 17:00:00 19,3 7,4 20,9 9,0 8,4 14 8 29 16 WZW 1022,2 20 45 0,0
28.03.2017 16:00:00 19,6 7,0 22,3 8,8 8,5 15 8 32 17 WZW 1022,2 20 56 0,0
28.03.2017 15:00:00 19,0 7,1 25,4 8,6 8,4 15 8 28 15 WZW 1022,5 20 60 0,0
28.03.2017 14:00:00 18,6 6,4 25,8 8,5 8,5 14 8 26 14 WZW 1022,8 20 60 0,0
28.03.2017 13:00:00 18,4 7,2 24,7 8,5 8,5 12 7 21 11 ZW 1022,7 20 60 0,0
28.03.2017 12:00:00 15,9 7,9 20,1 8,5 8,5 6 3 17 9 ZO 1023,0 19 60 0,0
28.03.2017 11:00:00 12,6 6,4 15,2 8,5 8,5 10 5 16 9 OZO 1023,1 19 60 0,0
28.03.2017 10:00:00 8,4 4,4 8,6 8,6 8,4 6 4 13 7 OZO 1023,1 16 60 0,0
28.03.2017 09:00:00 3,5 3,1 -1,5 8,7 8,5 1 1 3 1 ZW 1023,1 18 60 0,0
28.03.2017 08:00:00 0,1 -0,2 -4,5 8,8 8,4 1 0 3 1 ZO 1023,0 14 10 0,0
28.03.2017 07:00:00 -0,6 -0,9 -4,7 8,9 8,5 1 1 5 3 O 1022,5 8 0 0,0
28.03.2017 06:00:00 -0,8 -1,2 -4,4 9,0 8,4 3 1 3 2 ZO 1022,2 0,4 0 0,0
28.03.2017 05:00:00 0,5 0,1 -3,3 9,1 8,5 1 1 4 2 W 1022,2 2,8 0 0,0
28.03.2017 04:00:00 0,5 -0,1 -3,4 9,2 8,4 1 0 4 2 ZO 1022,2 0,9 0 0,0
28.03.2017 03:00:00 1,1 0,4 -2,9 9,2 8,4 1 1 4 2 NW 1022,3 13 0 0,0
28.03.2017 02:00:00 1,7 1,0 -2,2 9,4 8,4 1 0 3 1 ZW 1022,1 14 0 0,0
28.03.2017 01:00:00 2,0 1,1 -2,3 9,4 8,4 1 1 4 2 ZW 1021,9 12 0 0,0
28.03.2017 00:00:00 3,1 1,9 -1,1 9,5 8,4 2 1 4 2 W 1021,8 20 0 0,0
27.03.2017 23:00:00 3,8 2,2 -0,7 9,5 8,5 1 1 3 2 NW 1021,9 20 0 0,0
27.03.2017 22:00:00 5,3 1,8 0,7 9,5 8,4 1 1 4 2 W 1021,5 20 0 0,0
27.03.2017 21:00:00 8,1 3,2 2,6 9,4 8,4 2 1 6 3 WNW 1021,0 20 0 0,0
27.03.2017 20:00:00 12,7 2,2 6,6 9,3 8,4 4 2 16 9 ZO 1020,4 20 39 0,0
27.03.2017 19:00:00 16,6 1,5 14,9 9,1 8,4 11 6 24 13 ZO 1019,9 20 60 0,0
27.03.2017 18:00:00 17,3 2,1 18,7 9,0 8,4 13 7 26 14 ZO 1019,6 20 60 0,0
27.03.2017 17:00:00 17,5 1,0 21,8 8,8 8,4 15 8 29 16 OZO 1019,8 20 60 0,0
27.03.2017 16:00:00 17,2 1,6 23,7 8,6 8,4 13 7 24 13 OZO 1020,4 20 60 0,0
27.03.2017 15:00:00 16,5 1,4 22,5 8,5 8,4 13 7 29 16 O 1020,9 20 60 0,0
27.03.2017 14:00:00 16,4 1,7 22,0 8,4 8,4 15 8 27 15 ZZO 1021,4 20 60 0,0
27.03.2017 13:00:00 15,1 0,9 20,5 8,3 8,4 16 9 34 18 ZO 1021,8 20 60 0,0
27.03.2017 12:00:00 14,2 1,5 16,8 8,3 8,4 14 8 34 18 ZO 1022,1 20 60 0,0
27.03.2017 11:00:00 11,7 0,7 15,2 8,4 8,4 23 13 34 19 ZO 1022,6 20 60 0,0
27.03.2017 10:00:00 8,5 4,5 8,2 8,5 8,4 3 2 7 4 ZO 1022,9 19 60 0,0
27.03.2017 09:00:00 1,8 1,4 -3,1 8,6 8,4 1 1 3 2 W 1023,5 18 60 0,0
27.03.2017 08:00:00 -1,8 -2,1 -5,7 8,7 8,4 3 2 5 3 O 1023,3 0,9 8 0,0
27.03.2017 07:00:00 -1,8 -2,4 -5,7 8,8 8,4 1 0 6 3 OZO 1023,0 0,8 0 0,0
27.03.2017 06:00:00 -0,8 -1,2 -4,9 8,9 8,4 2 1 5 3 W 1022,7 13 0 0,0
27.03.2017 05:00:00 0,0 -0,6 -4,7 9,0 8,4 1 1 3 2 W 1022,7 17 0 0,0
27.03.2017 04:00:00 0,7 0,3 -3,7 9,1 8,4 1 1 4 2 WNW 1023,0 16 0 0,0
27.03.2017 03:00:00 1,4 1,0 -2,6 9,2 8,4 2 1 5 3 OZO 1023,3 7 0 0,0
27.03.2017 02:00:00 1,9 1,0 -2,0 9,2 8,4 2 1 5 3 ZW 1023,6 20 0 0,0
27.03.2017 01:00:00 2,6 1,0 -1,4 9,3 8,4 2 1 5 3 WNW 1023,5 17 0 0,0
27.03.2017 00:00:00 3,7 2,4 -1,1 9,4 8,4 1 1 8 4 N 1023,1 20 0 0,0
26.03.2017 23:00:00 5,0 2,4 0,8 9,3 8,4 2 1 5 3 Z 1022,8 20 0 0,0
26.03.2017 22:00:00 6,9 2,4 2,2 9,3 8,4 4 2 8 5 ZW 1022,3 20 0 0,0
26.03.2017 21:00:00 9,8 4,4 4,0 9,2 8,4 2 1 9 5 N 1021,6 20 0 0,0
26.03.2017 20:00:00 11,5 4,5 8,1 9,1 8,4 7 4 10 6 O 1021,0 20 23 0,0
26.03.2017 19:00:00 17,4 2,2 16,3 8,9 8,4 6 4 17 9 Z 1020,1 20 60 0,0
26.03.2017 18:00:00 17,9 2,2 20,3 8,8 8,4 6 3 20 11 Z 1020,0 19 60 0,0
26.03.2017 17:00:00 18,2 4,0 21,8 8,6 8,4 12 7 25 14 ZO 1020,3 20 60 0,0
26.03.2017 16:00:00 18,0 3,5 23,1 8,4 8,4 13 7 29 15 ZZO 1020,6 20 60 0,0
26.03.2017 15:00:00 17,6 3,5 22,1 8,2 8,4 14 8 26 14 ZZO 1021,0 20 60 0,0
26.03.2017 14:00:00 16,5 3,9 21,6 8,1 8,3 13 7 27 15 ZZO 1021,6 20 60 0,0
26.03.2017 13:00:00 15,0 2,8 20,6 8,1 8,4 16 8 26 14 ZZO 1021,9 20 60 0,0
26.03.2017 12:00:00 13,6 2,2 17,5 8,1 8,4 16 9 34 19 OZO 1022,2 20 60 0,0
26.03.2017 11:00:00 12,5 1,8 14,7 8,1 8,4 23 12 39 21 OZO 1022,1 20 60 0,0
26.03.2017 10:00:00 11,1 1,3 12,1 8,2 8,4 19 10 32 17 OZO 1022,2 20 60 0,0
26.03.2017 09:00:00 7,4 2,1 -0,4 8,3 8,4 5 3 14 8 Z 1022,3 20 60 0,0
26.03.2017 08:00:00 1,4 -1,5 -1,5 8,4 8,4 3 2 8 4 NO 1022,2 20 6 0,0
26.03.2017 07:00:00 3,6 -1,0 -2,3 8,5 8,4 4 2 14 8 WNW 1021,6 20 0 0,0
26.03.2017 06:00:00 2,6 -1,4 -2,9 8,5 8,4 9 5 14 8 ONO 1021,6 20 0 0,0
26.03.2017 05:00:00 1,0 -1,4 -2,6 8,6 8,4 2 1 7 4 O 1021,6 20 0 0,0
26.03.2017 04:00:00 1,8 -1,1 -2,1 8,7 8,4 2 1 11 6 W 1021,3 20 0 0,0
26.03.2017 03:00:00 3,4 -0,6 -0,6 8,8 8,4 5 3 14 8 WZW 1021,6 20 0 0,0
26.03.2017 02:00:00 5,3 -0,8 0,4 8,8 8,4 9 5 13 7 O 1021,5 20 0 0,0
26.03.2017 01:00:00 4,9 -0,1 -1,3 8,9 8,4 5 3 11 6 ONO 1021,3 20 0 0,0
26.03.2017 00:00:00 6,9 0,3 1,0 8,9 8,4 2 1 10 5 ZW 1021,4 20 0 0,0
25.03.2017 23:00:00 9,0 -1,2 2,8 8,9 8,4 5 3 20 11 O 1021,5 20 0 0,0
25.03.2017 22:00:00 11,8 -2,1 6,7 8,9 8,4 8 4 39 21 O 1021,0 20 0 0,0
25.03.2017 21:00:00 13,3 -1,5 10,3 8,9 8,4 10 6 42 23 O 1020,2 20 0 0,0
25.03.2017 20:00:00 14,5 -1,2 12,0 8,8 8,3 18 10 46 25 ONO 1019,9 20 38 0,0
25.03.2017 19:00:00 16,1 0,2 15,0 8,7 8,4 21 11 43 23 ONO 1019,9 20 60 0,0
25.03.2017 18:00:00 17,3 -1,9 17,9 8,6 8,4 31 17 60 32 ONO 1019,9 20 60 0,0
25.03.2017 17:00:00 18,0 -1,8 19,9 8,4 8,4 28 15 52 28 ONO 1020,3 20 60 0,0
25.03.2017 16:00:00 17,9 -2,4 21,3 8,3 8,3 36 19 55 30 ONO 1020,8 20 60 0,0
25.03.2017 15:00:00 17,9 0,1 21,2 8,2 8,4 28 15 52 28 ONO 1021,4 20 60 0,0
25.03.2017 14:00:00 17,3 1,3 20,0 8,1 8,3 30 16 52 28 ONO 1022,2 20 60 0,0
25.03.2017 13:00:00 16,0 1,7 18,9 8,1 8,4 27 14 45 25 ONO 1022,9 20 60 0,0
25.03.2017 12:00:00 12,7 0,7 16,3 8,1 8,4 24 13 43 23 ONO 1023,9 20 60 0,0
25.03.2017 11:00:00 12,2 3,2 13,0 8,1 8,4 21 12 36 20 ONO 1024,7 20 60 0,0
25.03.2017 10:00:00 9,4 3,8 9,4 8,2 8,4 14 8 27 14 ONO 1025,7 15 60 0,0
25.03.2017 09:00:00 5,0 3,2 -0,9 8,3 8,4 2 1 15 8 N 1026,8 9 60 0,0
25.03.2017 08:00:00 1,7 0,5 -1,9 8,4 8,3 8 4 13 7 O 1027,2 7 3 0,0
25.03.2017 07:00:00 4,3 1,5 0,7 8,5 8,4 10 5 29 16 O 1027,0 11 0 0,0
25.03.2017 06:00:00 4,9 1,4 -2,1 8,5 8,4 8 4 18 10 NO 1026,7 12 0 0,0
25.03.2017 05:00:00 3,1 0,7 -2,0 8,6 8,4 4 2 12 6 ONO 1027,2 12 0 0,0
25.03.2017 04:00:00 4,2 1,2 -1,4 8,7 8,4 3 2 14 7 OZO 1027,6 14 0 0,0
25.03.2017 03:00:00 5,2 1,3 1,3 8,8 8,4 7 4 18 10 OZO 1027,8 16 0 0,0
25.03.2017 02:00:00 7,0 2,3 0,8 8,8 8,4 9 5 19 11 ONO 1027,9 19 0 0,0
25.03.2017 01:00:00 6,1 3,1 -0,9 8,9 8,4 7 4 15 8 ONO 1027,8 20 0 0,0
25.03.2017 00:00:00 3,8 2,2 -0,7 8,9 8,4 4 2 6 4 O 1027,7 16 0 0,0
24.03.2017 23:00:00 5,5 3,3 1,1 8,9 8,4 2 1 6 3 ZO 1028,0 16 0 0,0
24.03.2017 22:00:00 7,8 5,4 4,8 8,9 8,3 3 2 16 9 W 1027,6 16 0 0,0
24.03.2017 21:00:00 8,6 5,5 3,5 8,8 8,4 7 4 18 10 NNO 1026,7 15 0 0,0
24.03.2017 20:00:00 11,7 6,4 7,7 8,7 8,4 6 3 19 10 N 1025,6 20 0 0,0
24.03.2017 19:00:00 13,7 5,3 12,9 8,6 8,3 15 8 28 15 O 1024,9 20 9 0,0
24.03.2017 18:00:00 16,1 6,0 17,2 8,5 8,3 17 9 25 13 O 1024,3 20 56 0,0
24.03.2017 17:00:00 15,5 6,2 17,6 8,4 8,3 13 7 24 13 NO 1024,3 18 47 0,0
24.03.2017 16:00:00 15,1 6,6 16,1 8,3 8,4 10 5 29 15 ONO 1024,3 20 8 0,0
24.03.2017 15:00:00 13,9 5,8 17,0 8,2 8,3 19 11 36 19 NO 1024,6 18 37 0,0
24.03.2017 14:00:00 12,8 5,9 14,7 8,2 8,4 18 10 29 16 O 1025,3 16 2 0,0
24.03.2017 13:00:00 12,0 6,1 13,1 8,1 8,3 16 8 23 12 ONO 1025,5 15 2 0,0
24.03.2017 12:00:00 10,7 5,9 11,1 8,1 8,3 9 5 28 15 ONO 1025,8 14 0 0,0
24.03.2017 11:00:00 9,8 5,6 10,1 8,2 8,3 15 8 32 17 ONO 1025,1 16 0 0,0
24.03.2017 10:00:00 9,2 5,9 8,8 8,2 8,4 16 9 28 15 O 1024,2 14 23 0,0
24.03.2017 09:00:00 7,4 5,9 3,6 8,3 8,4 6 3 18 10 ONO 1022,5 13 0 0,0
24.03.2017 08:00:00 5,9 3,9 3,2 8,3 8,4 4 2 24 13 OZO 1022,5 12 0 0,0
24.03.2017 07:00:00 5,6 3,6 2,3 8,3 8,4 9 5 14 7 O 1021,5 16 0 0,0
24.03.2017 06:00:00 7,3 4,8 3,6 8,4 8,3 9 5 16 8 ONO 1020,3 18 0 0,0
24.03.2017 05:00:00 6,9 4,9 2,5 8,4 8,3 10 5 16 9 NO 1020,6 18 0 0,0
24.03.2017 04:00:00 8,3 4,3 5,8 8,4 8,4 9 5 14 7 ZO 1020,8 20 0 0,0
24.03.2017 03:00:00 10,0 5,0 7,6 8,4 8,3 5 3 36 19 OZO 1019,7 20 0 0,0
24.03.2017 02:00:00 12,0 5,8 9,2 8,4 8,4 25 13 43 23 ONO 1017,7 20 0 0,0
24.03.2017 01:00:00 10,3 5,7 7,5 8,4 8,4 14 7 20 11 NO 1019,0 20 0 0,0
24.03.2017 00:00:00 11,2 5,1 9,1 8,4 8,3 11 6 17 9 ZO 1019,3 20 0 0,0
23.03.2017 23:00:00 11,1 5,0 9,0 8,3 8,3 10 5 28 15 OZO 1016,7 20 0 0,0
23.03.2017 22:00:00 12,6 5,0 9,1 8,3 8,4 22 12 34 19 O 1015,6 20 0 0,0
23.03.2017 21:00:00 - - - - - - - - - - - - - -

tt = temperatuur
td = dauwpunt
tt 5cm = temperatuur 5cm
tt -20cm = temperatuur -20cm
tt -100cm = temperatuur -100cm
ff = windsnelheid
fx = windstoten
dd = windrichting
ppp = luchtdruk
vv = zicht
sd = Zonneschijnduur
rr = neerslag

Weerstations in de omgeving